Location: Petržalka
(48.1109°N, 17.1116°E)
Time: 18:36:46
(UTC+02:00)

Envisat - Visible Passes

Search period start: 15 October 2019 00:00
Search period end: 25 October 2019 00:00
Orbit: 764 x 766 km, 98.1° (Epoch: 15 October)

Date Brightness Start Highest point End Pass type
(mag) Time Alt. Az. Time Alt. Az. Time Alt. Az.
15 Oct 6.5 06:22:23 10° ENE 06:24:29 12° E 06:26:33 10° ESE visible
15 Oct 3.9 19:17:25 10° S 19:22:21 52° W 19:27:20 10° NNW visible
16 Oct 3.0 18:40:29 10° SSE 18:45:33 78° ENE 18:50:39 10° NNW visible
16 Oct 6.0 20:22:12 10° SW 20:25:11 15° W 20:28:10 10° NW visible
17 Oct 4.9 19:43:32 10° SSW 19:48:01 31° W 19:52:32 10° NNW visible
18 Oct 3.5 19:06:02 10° S 19:11:03 64° WSW 19:16:08 10° NNW visible
19 Oct 3.0 18:29:18 10° SSE 18:34:18 63° ENE 18:39:21 10° N visible
19 Oct 5.7 20:10:11 10° SW 20:13:46 19° W 20:17:23 10° NW visible
20 Oct 6.1 06:35:40 10° NE 06:38:55 17° E 06:42:11 10° SE visible
20 Oct 4.5 19:31:57 10° SSW 19:36:41 38° W 19:41:26 10° NNW visible
21 Oct 3.2 18:54:42 10° S 18:59:47 80° WSW 19:04:54 10° NNW visible
21 Oct 6.2 20:38:08 10° WSW 20:39:39 11° W 20:41:09 10° WNW visible
22 Oct 3.2 18:18:10 10° SE 18:23:05 51° ENE 18:28:01 10° N visible
22 Oct 5.4 19:58:21 10° SW 20:02:23 24° W 20:06:28 10° NW visible
23 Oct 6.3 06:25:01 10° ENE 06:27:31 14° E 06:30:00 10° ESE visible
23 Oct 4.1 19:20:28 10° S 19:25:21 48° W 19:30:17 10° NNW visible
24 Oct 3.0 18:43:26 10° SSE 18:48:30 84° ENE 18:53:37 10° NNW visible
24 Oct 6.0 20:25:32 10° WSW 20:28:13 14° W 20:30:53 10° NW visible
